User: anonymous   Login
Location: Newark
(46.7000°N, 60.6000°W)
Time: 14:29:57
(UTC+00:00)
Language:

Transit 2A Rocket - Orbit

View from above orbital plane
View from above orbital plane
View from above satellite
View from above satellite

Ground track
Ground track

The orbit data is extracted from the following two-line orbital elements,

1    47U 60007C   20304.03777910 -.00000007  00000-0  23473-4 0  9998
2    47  66.6645 155.1164 0231285 206.4518 152.4633 14.42107199154525
Epoch (UTC): 30 October 2020 00:54:24
Eccentricity: 0.0231285
inclination: 66.6645°
perigee height: 586 km
apogee height: 916 km
right ascension of ascending node: 155.1164°
argument of perigee: 206.4518°
revolutions per day: 14.42107199
mean anomaly at epoch: 152.4633°
orbit number at epoch: 15452

The dashed part of the orbit path shows where the satellite is in the earth's shadow,  

DLR